Weather in Vamberk

Czech Republic     50°07′03″N   16°17′26″E
temp.,
°C
wind,
m/s
gust,
m/s
humid.,
%
clouds,
%
prec.,
mm/h
press.,
hPa
HPBL,
m
20 june, sun
sun2023:00+20ese337138 0.0 101324
02:00+18se227723 0.0 101422
05:00+17se3378100 0.0 101328
08:00+22se337191 0.0 1012204
11:00+27s2357100 0.0 1013983
14:00+28se234993 0.0 10111417
17:00+29ese224838 0.0 10101177
20:00+24ese46715 0.0 100899
21 june, mon
mon2123:00+20ese33773 0.0 100943
02:00+19ese33845 0.0 100845
05:00+18ese358598 0.0 100785
08:00+23ese510746 0.0 1007421
11:00+27sse58615 0.0 10071300
14:00+28sse466194 0.6 10061623
17:00+27sse566737 2.8 10071083
20:00+23wnw2280100 6.4 100730
22 june, tue
tue2223:00+17ene3796100 4.2 1008195
02:00+16ese11974 4.6 101015
05:00+16nne11967 0.0 101014
08:00+19n228847 0.0 1011343
11:00+23ne336748 0.0 10111112
14:00+24ene237395 0.2 1011824
17:00+24ne437375 0.3 1012639
20:00+20ne36923 2.4 1012203
23 june, wed
wed2323:00+17e23940 0.7 101161
02:00+17se2295100 2.4 101136
05:00+16wsw2597100 5.6 1014242
08:00+18wnw47854 6.2 1015518
11:00+20w576940 0.0 10161104
14:00+22wnw67630 0.0 10171127
17:00+20wnw56670 0.0 1018831
20:00+17nw34825 0.0 1018130
24 june, thu
thu2423:00+13nw229173 0.0 101914
02:00+13w019550 0.6 101915
05:00+12nw229712 0.4 101832
08:00+16nnw11867 0.4 1018285
11:00+22e236935 0.0 1017942
14:00+24ese446597 0.0 10161163
17:00+24e467499 0.0 1014607
20:00+18wnw91198100 16.3 1013552